Home > Weather > Mülheim / Ruhr > Past weeks

Flag for Germany Past Weather in Mülheim / Ruhr, North Rhine-Westphalia, Germany — Yesterday and Last 2 Weeks

Now
61 °F

Overcast.


Feels Like: 61 °F
Forecast: 57 / 71 °F
Wind: 8 mph from North

Location: Duesseldorf

Current Time: May 30, 2016 at 3:08:47 AM

Latest Report: May 30, 2016 at 2:20 AM


Visibility: N/A

Pressure: 29.68 "Hg

Humidity: 94%

Dew Point: 59 °F

Location of Mülheim / RuhrLocation

Past Weather in Mülheim / Ruhr — Graph

°F

Mülheim / Ruhr Temperature Yesterday

Maximum temperature yesterday: 73 °F (at 11:50 AM)
Minimum temperature yesterday: 55 °F (at 3:50 AM)
Average temperature yesterday: 64 °F

High & Low Weather Summary for the Past Weeks

 TemperatureHumidityPressure
High77 °F (May 28, 2:50 PM)100% (May 19, 3:50 AM)30.12 "Hg (May 19, 3:50 AM)
Low41 °F (May 15, 5:20 AM)38% (May 26, 4:50 PM)29.68 "Hg (May 18, 7:20 PM)
Average58 °F74%29.94 "Hg
* Reported May 15 1:20 AM — May 30 1:50 AM, Mülheim / Ruhr, Weather by CustomWeather, © 2016

Note: Actual official high and low records may vary slightly from our data, if they occured in-between our weather recording intervals... More about our weather records

Advertising

Mülheim / Ruhr Weather History for the Previous 24 Hours

Scroll right to see more
 ConditionsComfort  
Time TempWeatherWind HumidityBarometerVisibility
1:50 AM
Mon, May 30
63 °FOvercast.6 mph88%29.71 "HgN/A
1:20 AM63 °FOvercast.7 mph88%29.71 "HgN/A
12:50 AM63 °FOvercast.7 mph88%29.71 "HgN/A
12:20 AM63 °FOvercast.8 mph88%29.71 "HgN/A
11:50 PM
Sun, May 29
63 °FOvercast.7 mph88%29.71 "HgN/A
11:20 PM63 °FOvercast.8 mph88%29.71 "HgN/A
10:50 PM63 °FOvercast.9 mph88%29.74 "HgN/A
10:20 PM63 °FPartly sunny.8 mph88%29.74 "HgN/A
9:50 PM63 °FPartly sunny.9 mph88%29.71 "HgN/A
9:20 PM63 °FBroken clouds.10 mph88%29.71 "HgN/A
8:50 PM64 °FPartly sunny.10 mph83%29.71 "HgN/A
8:20 PM64 °FBroken clouds.12 mph83%29.71 "HgN/A
7:50 PM64 °FPartly sunny.12 mph83%29.71 "HgN/A
7:20 PM64 °FSprinkles. Partly sunny.9 mph83%29.71 "HgN/A
6:50 PM66 °FSprinkles. Partly sunny.10 mph78%29.71 "HgN/A
6:20 PM64 °FSprinkles. Partly sunny.9 mph88%29.71 "HgN/A
5:50 PM66 °FSprinkles. Broken clouds.12 mph78%29.71 "HgN/A
5:20 PM66 °FScattered showers. Broken clouds.9 mph78%29.71 "HgN/A
4:50 PM66 °FSprinkles. Broken clouds.13 mph83%29.71 "HgN/A
4:20 PM66 °FScattered showers. Broken clouds.16 mph78%29.71 "HgN/A
3:50 PM68 °FScattered showers. Broken clouds.14 mph78%29.71 "HgN/A
3:20 PM68 °FSprinkles. Broken clouds.16 mph73%29.71 "HgN/A
2:50 PM68 °FScattered showers. Broken clouds.16 mph73%29.71 "HgN/A
2:20 PM72 °FBroken clouds.17 mph69%29.71 "HgN/A
1:50 PM70 °FBroken clouds.12 mph69%29.71 "HgN/A
1:20 PM70 °FPartly sunny.13 mph69%29.71 "HgN/A
12:50 PM70 °FPartly sunny.14 mph69%29.71 "HgN/A
12:20 PM72 °FPartly sunny.13 mph65%29.71 "HgN/A
11:50 AM73 °FBroken clouds.12 mph61%29.71 "HgN/A
11:20 AM72 °FBroken clouds.13 mph65%29.71 "HgN/A
10:50 AM72 °FBroken clouds.13 mph65%29.74 "HgN/A
10:20 AM70 °FBroken clouds.12 mph69%29.74 "HgN/A
9:50 AM68 °FPassing clouds.9 mph73%29.74 "HgN/A
9:20 AM66 °FSunny.10 mph78%29.74 "Hg10 mi
8:50 AM66 °FSunny.8 mph78%29.74 "Hg10 mi
8:20 AM64 °FSunny.9 mph83%29.74 "Hg10 mi
7:50 AM63 °FSunny.6 mph83%29.74 "Hg10 mi
7:20 AM63 °FSunny.3 mph83%29.74 "Hg10 mi
6:50 AM61 °FSunny.2 mph83%29.74 "Hg10 mi
6:20 AM59 °FClear.2 mph88%29.74 "Hg10 mi
5:50 AM59 °FPassing clouds.5 mph88%29.77 "HgN/A
5:20 AM57 °FClear.6 mph88%29.77 "Hg10 mi
4:50 AM57 °FClear.6 mph94%29.77 "Hg10 mi
4:20 AM55 °FFog.3 mph94%29.77 "HgN/A
3:50 AM55 °FFog.3 mph100%29.77 "HgN/A
3:20 AM57 °FFog.2 mph94%29.77 "HgN/A
Weather by CustomWeather, © 2016

See weather overviewHow to use our weather pages